Find Starlink 36290

NORAD ID: 68516 Int'l Des: 2026-068 Owner: SPXS Country: US Constellation: starlink operational
LEOCIRCULAR

Live Position

Loading 3D Globe...

About Starlink 36290

Description loading...

Upcoming Passes

Passes for default location (London). Set your location on the main map for personalized predictions.

Altitude History

Loading altitude history...

Two-Line Element Set

1 68516U 26068J 26105.96129949 .00231078 00000-0 11391-2 0 9999
2 68516 53.1581 322.4704 0000823 87.4170 272.6947 15.80952477 2561
Epoch: Apr 15, 2026 • Age: 12 hours

Current Status

Altitude 333.7 km
Velocity 7.71 km/s
Sub-Earth Point -22.42°S, 68.88°W
Launch Date Mar 30, 2026
Age 16 days
Type internet

Technical Details

Classification Payload
Mass 575.00 kg
Dry Mass 530.00 kg
Total Mass 575.00 kg
Length 0.30 m
Diameter 4.10 m
Span 29.00 m
Shape Box + pan
Manufacturer SPXS
Bus Type Starlink V2MO
Phase Status In Orbit
Owner/State SPXS/US

Most Searched